Hourly Data Report for October 08, 2004

SHERBROOKE A
QUEBEC

45°26'00.000" N
71°41'00.000" W
241.40 m
7028124
71610
YSC

Download Data

Hourly Data (October 2004)
Hourly Data Report for October 8, 2004
TIME
LST
Temp Definition
°C
Dew Point Definition
°C
Rel Hum Definition
%
Precip. Amount Definition
mm

Wind Dir Definition
10's deg

Wind Spd Definition
km/h
Visibility Definition
km
Stn Press Definition
kPa
Hmdx Definition


Wind Chill Definition


Weather Definition


00:00 5.7 4.8 94   9 6 9.7 99.82      
01:00 5.9 5.0 94     0 15.0 99.82      
02:00 5.5 4.6 94   10 4 15.0 99.79      
03:00 5.7 4.9 95   12 4 9.7 99.79      
04:00 5.0 4.0 93   8 4 6.4 99.77      
05:00 4.2 3.3 94     0 2.1 99.80      
06:00 4.5 3.4 93     0 15.0 99.81      
07:00 7.2 6.6 96     0 24.1 99.84     Mainly Clear
08:00 12.3 10.3 88     0 24.1 99.84     Mainly Clear
09:00 14.7 11.1 79     0 24.1 99.83     Mainly Clear
10:00 19.1 12.3 65   21 13 24.1 99.76     Mainly Clear
11:00 22.1 13.7 59   23 11 24.1 99.66 25   Mostly Cloudy
12:00 22.8 13.2 55   26 11 24.1 99.58 26   Mostly Cloudy
13:00 23.5 12.8 51   25 17 24.1 99.47 26   Mostly Cloudy
14:00 23.7 12.5 49   25 13 24.1 99.41 26   Mostly Cloudy
15:00 23.4 12.0 49   23 6 24.1 99.36 26   Mostly Cloudy
16:00 22.3 11.3 50   20 7 24.1 99.30     Mostly Cloudy
17:00 19.8 10.8 56   19 6 15.0 99.28      
18:00 17.4 10.9 66   16 11 15.0 99.27      
19:00 14.3 10.6 78   18 6 15.0 99.26      
20:00 13.1 10.0 81   26 4 15.0 99.23      
21:00 10.6 9.1 90   25 6 15.0 99.22      
22:00 10.2 8.8 91     0 15.0 99.19      
23:00 9.9 9.1 95     0 15.0 99.15      

Notes on Data Quality.

Legend

  • E = Estimated
  • M = Missing
  • NA = Not Available*
  • [empty] = Indicates an unobserved value
Date modified: